EW8868 Weather Reports


time (UTC)temp
C
wind
direction
speed
KPH
gust
KPH
rain 1hr
cm
rain 24hr
cm
rain mn
cm
humidity
%
barometer
mb
20260906140035 24 196 0.0 0.0 0.00 0.00 0.00 100 1011.9
20260906134526 24 196 0.0 0.0 0.00 0.00 0.00 100 1012.0
20260906133031 23 196 0.0 0.0 0.00 0.00 0.00 100 1012.0
20260906131518 23 196 0.0 0.0 0.00 0.00 0.00 100 1011.8
20260906130020 23 196 0.0 0.0 0.00 0.00 0.00 100 1011.7
20260906124510 23 196 0.0 0.0 0.00 0.00 0.00 100 1011.5
20260906123013 23 196 0.0 0.0 0.00 0.00 0.00 100 1011.5
20260906121614 22 196 0.0 0.0 0.00 0.00 0.00 100 1011.4
20260906120104 22 196 0.0 0.0 0.00 0.00 0.00 100 1011.1
20260906114553 22 196 0.0 0.0 0.00 0.00 0.00 100 1011.3
20260906113048 22 198 0.0 0.0 0.00 0.00 0.00 100 1011.1
20260906111547 22 198 0.0 0.0 0.00 0.00 0.00 100 1011.2
20260906110038 22 198 0.0 0.0 0.00 0.00 0.00 100 1011.1
20260906104537 22 198 0.0 0.0 0.00 0.00 0.00 100 1011.0
20260906103030 22 198 0.0 0.0 0.00 0.00 0.00 100 1011.0
20260906101533 22 198 0.0 0.0 0.00 0.00 0.00 100 1011.2
20260906100030 22 198 0.0 0.0 0.00 0.00 0.00 100 1011.6
20260906094517 22 198 0.0 0.0 0.00 0.00 0.00 100 1011.9
20260906093015 23 198 0.0 0.0 0.00 0.00 0.00 100 1011.5
20260906091508 23 198 0.0 0.0 0.00 0.00 0.00 100 1011.2
20260906090004 23 198 0.0 0.0 0.00 0.00 0.00 100 1010.9
20260906084601 23 198 0.0 0.0 0.00 0.00 0.00 100 1010.8
20260906083102 23 198 0.0 0.0 0.00 0.00 0.00 100 1010.7
20260906081551 24 198 0.0 0.0 0.00 0.00 0.00 100 1010.6
20260906080048 24 198 0.0 0.0 0.00 0.00 0.00 100 1010.7
20260906074542 23 198 0.0 0.0 0.00 0.00 0.00 100 1010.9
20260906073038 23 198 0.0 0.0 0.00 0.00 0.00 100 1010.9
20260906071534 24 198 0.0 0.0 0.00 0.00 0.00 100 1010.7
20260906070029 23 198 0.0 0.0 0.00 0.00 0.00 100 1010.7
20260906064527 23 198 0.0 0.0 0.00 0.00 0.00 100 1010.7
20260906063020 23 198 0.0 0.0 0.00 0.00 0.00 100 1010.9
20260906061516 24 198 0.0 0.0 0.00 0.00 0.00 100 1011.2
20260906060016 24 198 0.0 0.0 0.00 0.00 0.00 100 1011.1
20260906054507 23 198 0.0 0.0 0.00 0.00 0.00 100 1011.2
20260906053003 23 198 0.0 0.0 0.00 0.00 0.00 100 1011.1
20260906051600 23 198 0.0 0.0 0.00 0.00 0.00 100 1011.1
20260906050054 23 198 0.0 0.0 0.00 0.00 0.00 100 1011.3
20260906044550 23 198 0.0 0.0 0.00 0.00 0.00 100 1011.5
20260906043047 23 198 0.0 0.0 0.00 0.00 0.00 100 1011.5
20260906041542 23 198 0.0 0.0 0.00 0.00 0.00 100 1011.5
20260906040037 23 198 0.0 0.0 0.00 0.00 0.00 100 1011.5
20260906034551 23 198 0.0 0.0 0.00 0.00 0.00 100 1011.7
20260906033032 24 198 0.0 0.0 0.00 0.00 0.00 100 1011.5
20260906031529 26 212 0.0 0.0 0.00 0.00 0.00 100 1011.5
20260906030019 27 23 0.0 0.0 0.00 0.00 0.00 100 1012.3
20260906024515 27 198 0.0 0.0 0.00 0.00 0.00 100 1011.4
20260906023012 27 198 0.0 0.0 0.00 0.00 0.00 100 1011.1
20260906021507 28 198 0.0 0.0 0.00 0.00 0.00 100 1011.1
20260906020002 28 198 0.0 0.0 0.00 0.00 0.00 100 1010.9
20260906014558 28 198 0.0 0.0 0.00 0.00 0.00 100 1010.7
20260906013054 28 198 0.0 0.0 0.00 0.00 0.00 100 1010.4
20260906011550 28 198 0.0 0.0 0.00 0.00 0.00 100 1010.1
20260906010059 29 198 0.0 0.0 0.00 0.00 0.00 3 1009.6
20260906004552 29 204 0.0 0.0 0.00 0.00 0.00 9 1009.3
20260906003036 29 204 0.0 0.0 0.00 0.00 0.00 100 1009.4
20260906001546 30 204 0.0 0.0 0.00 0.00 0.00 100 1009.1
20260906000027 31 204 0.0 0.0 0.00 0.00 0.00 4 1009.3
20260905234522 32 204 0.0 0.0 0.00 0.00 0.00 30 1009.3
20260905233021 33 204 0.0 0.0 0.00 0.00 0.00 43 1009.3
20260905231517 33 204 0.0 0.0 0.00 0.00 0.00 59 1009.2
20260905230009 33 204 0.0 0.0 0.00 0.00 0.00 59 1009.2
20260905224506 33 204 0.0 0.0 0.00 0.00 0.00 58 1009.1
20260905223004 33 204 0.0 0.0 0.00 0.00 0.00 57 1009.0
20260905221601 34 204 0.0 0.0 0.00 0.00 0.00 57 1009.0
20260905220052 34 204 0.0 0.0 0.00 0.00 0.00 56 1009.1
20260905214549 34 204 0.0 0.0 0.00 0.00 0.00 57 1009.0
20260905213048 34 204 0.0 0.0 0.00 0.00 0.00 57 1009.1
20260905211539 34 204 0.0 0.0 0.00 0.00 0.00 56 1009.3
20260905210045 34 204 0.0 0.0 0.00 0.00 0.00 56 1009.3
20260905204533 35 204 0.0 0.0 0.00 0.00 0.00 56 1009.4
20260905203026 35 203 0.0 0.0 0.00 0.00 0.00 55 1009.7
20260905201526 35 217 0.0 0.0 0.00 0.00 0.00 54 1009.7
20260905200021 35 217 0.0 0.0 0.00 0.00 0.00 53 1009.9
20260905194513 35 217 0.0 0.0 0.00 0.00 0.00 54 1010.0
20260905193016 35 217 0.0 0.0 0.00 0.00 0.00 55 1010.4
20260905191504 36 324 0.0 0.0 0.00 0.00 0.00 52 1010.5
20260905190100 35 272 0.0 0.0 0.00 0.00 0.00 53 1010.8
20260905184605 35 272 0.0 0.0 0.00 0.00 0.00 55 1010.9
20260905183052 34 11 0.0 0.0 0.00 0.00 0.00 56 1011.2
20260905181549 33 11 0.0 0.0 0.00 0.00 0.00 57 1011.5
20260905180044 35 11 0.0 0.0 0.00 0.00 0.00 55 1011.7
20260905174538 35 80 0.0 0.0 0.00 0.00 0.00 55 1012.0
20260905173043 35 165 0.0 0.0 0.00 0.00 0.00 55 1012.1
20260905171531 34 55 0.0 0.0 0.00 0.00 0.00 54 1012.3
20260905170025 33 56 0.0 0.0 0.00 0.00 0.00 54 1012.5
20260905164522 33 55 0.0 0.0 0.00 0.00 0.00 53 1012.7
20260905163017 33 49 0.0 0.0 0.00 0.00 0.00 52 1012.8
20260905161514 33 260 0.0 0.0 0.00 0.00 0.00 51 1012.9
20260905160007 32 260 0.0 0.0 0.00 0.00 0.00 49 1013.0
20260905154503 32 260 0.0 0.0 0.00 0.00 0.00 43 1013.0
20260905153101 31 254 0.0 0.0 0.00 0.00 0.00 37 1013.1
20260905151609 31 254 0.0 0.0 0.00 0.00 0.00 26 1013.2
20260905150051 30 254 0.0 0.0 0.00 0.00 0.00 4 1013.2
20260905144548 28 59 0.0 0.0 0.00 0.00 0.00 100 1013.3
20260905143042 27 59 0.0 0.0 0.00 0.00 0.00 100 1013.4
20260905141538 26 59 0.0 0.0 0.00 0.00 0.00 100 1013.3